Overview Statistics Trail Chart Weather Telemetry Raw packets
 

This is the latest recevied weather packets stored in our database for station/object KD4EG. If no packets are shown the sender has not sent any weather packets the latest 10 day(s).

<< 16 17 18 19 20 21 22 >>
Time Temp. Humidity Pressure Rain* Wind** Luminosity Snow
1788533328 31.67° C 65% 1019.3 hPa 0 mm - 581 W/m² -
1788533024 31.67° C 65% 1019.4 hPa 0 mm - 534 W/m² -
1788532719 31.11° C 67% 1019.2 hPa 0 mm - 549 W/m² -
1788532416 30.56° C 67% 1019.3 hPa 0 mm - 521 W/m² -
1788532112 30.56° C 67% 1019 hPa 0 mm - 493 W/m² -
1788531807 30° C 68% 1019.2 hPa 0 mm - 463 W/m² -
1788531502 30.56° C 68% 1019.3 hPa 0 mm - 446 W/m² -
1788531197 30° C 69% 1018.9 hPa 0 mm - 496 W/m² -
1788530893 30° C 70% 1019.3 hPa 0 mm - 488 W/m² -
1788530588 30° C 70% 1019.3 hPa 0 mm - 432 W/m² -
1788530287 29.44° C 71% 1019.2 hPa 0 mm - 421 W/m² -
1788529982 29.44° C 72% 1019.3 hPa 0 mm - 397 W/m² -
1788529679 28.89° C 72% 1019 hPa 0 mm - 240 W/m² -
1788529378 28.89° C 73% 1019.3 hPa 0 mm - 363 W/m² -
1788529073 28.33° C 73% 1019.3 hPa 0 mm - 346 W/m² -
1788528769 28.33° C 74% 1019.4 hPa 0 mm - 337 W/m² -
1788528468 27.78° C 75% 1019.6 hPa 0 mm - 311 W/m² -
1788528164 27.78° C 76% 1019.6 hPa 0 mm - 216 W/m² -
1788527862 27.22° C 77% 1019.3 hPa 0 mm - 275 W/m² -
1788527559 27.78° C 77% 1019.6 hPa 0 mm - 280 W/m² -
1788527258 27.78° C 77% 1019.2 hPa 0 mm - 260 W/m² -
1788526958 27.22° C 78% 1019.7 hPa 0 mm - 223 W/m² -
1788526654 26.67° C 79% 1019.2 hPa 0 mm - 218 W/m² -
1788526363 26.67° C 80% 1019.3 hPa 0 mm - 206 W/m² -
1788526044 26.67° C 81% 1019.5 hPa 0 mm - 186 W/m² -

* Rain latest hour (hover to see other rain measurements)
** Current wind speed in m/s (hover to see current wind gust speed)